Time,TemperatureF,DewpointF,PressureIn,WindDirection,WindDirectionDegrees,WindSpeedMPH,WindSpeedGustMPH,Humidity,HourlyPrecipIn,Conditions,Clouds,dailyrainin,SoftwareType,DateUTC
2013-09-26 00:03:00,51.6,48.5,29.89,SW,225,0.0,-999.0,89,-99.99,,,0.00,Acu-Link.com,2013-09-26 04:03:00,
2013-09-26 00:18:00,51.6,48.5,29.89,SW,225,0.0,-999.0,89,-99.99,,,0.00,Acu-Link.com,2013-09-26 04:18:00,
2013-09-26 00:33:00,51.6,48.8,29.90,West,270,0.0,-999.0,90,-99.99,,,0.00,Acu-Link.com,2013-09-26 04:33:00,
2013-09-26 00:48:00,51.8,49.0,29.90,SW,225,0.0,-999.0,90,-99.99,,,0.00,Acu-Link.com,2013-09-26 04:48:00,
2013-09-26 01:03:00,51.8,48.7,29.90,SW,225,0.0,-999.0,89,-99.99,,,0.00,Acu-Link.com,2013-09-26 05:03:00,
2013-09-26 01:18:00,51.6,48.5,29.90,West,270,0.0,-999.0,89,-99.99,,,0.00,Acu-Link.com,2013-09-26 05:18:00,
2013-09-26 01:33:00,51.6,48.5,29.90,West,270,0.0,-999.0,89,-99.99,,,0.00,Acu-Link.com,2013-09-26 05:33:00,
2013-09-26 01:48:00,51.6,48.8,29.90,SW,225,0.0,-999.0,90,-99.99,,,0.00,Acu-Link.com,2013-09-26 05:48:00,
2013-09-26 02:04:00,51.6,48.8,29.90,SW,225,0.0,-999.0,90,-99.99,,,0.00,Acu-Link.com,2013-09-26 06:04:00,
2013-09-26 02:19:00,51.8,49.0,29.90,WSW,247,0.0,-999.0,90,-99.99,,,0.00,Acu-Link.com,2013-09-26 06:19:00,
2013-09-26 02:34:00,51.8,48.7,29.90,SW,225,0.0,-999.0,89,-99.99,,,0.00,Acu-Link.com,2013-09-26 06:34:00,
2013-09-26 02:49:00,52.0,48.6,29.91,SW,225,0.0,-999.0,88,-99.99,,,0.00,Acu-Link.com,2013-09-26 06:49:00,
2013-09-26 03:04:00,52.2,48.4,29.91,WSW,247,0.0,-999.0,87,-99.99,,,0.00,Acu-Link.com,2013-09-26 07:04:00,
2013-09-26 03:19:00,52.2,48.4,29.91,SW,225,0.0,-999.0,87,-99.99,,,0.00,Acu-Link.com,2013-09-26 07:19:00,
2013-09-26 03:34:00,52.2,48.4,29.91,SW,225,0.0,-999.0,87,-99.99,,,0.00,Acu-Link.com,2013-09-26 07:34:00,
2013-09-26 03:49:00,52.2,48.4,29.91,SW,225,0.0,-999.0,87,-99.99,,,0.00,Acu-Link.com,2013-09-26 07:49:00,
2013-09-26 04:05:00,52.2,48.8,29.92,WSW,247,1.1,-999.0,88,-99.99,,,0.00,Acu-Link.com,2013-09-26 08:05:00,
2013-09-26 04:20:00,52.0,48.6,29.91,SW,225,0.0,-999.0,88,-99.99,,,0.00,Acu-Link.com,2013-09-26 08:20:00,
2013-09-26 04:35:00,52.0,48.6,29.91,NE,45,0.0,-999.0,88,-99.99,,,0.00,Acu-Link.com,2013-09-26 08:35:00,
2013-09-26 04:51:00,52.2,48.8,29.91,NE,45,0.0,-999.0,88,-99.99,,,0.00,Acu-Link.com,2013-09-26 08:51:00,
2013-09-26 05:06:00,52.3,48.9,29.91,WNW,292,1.1,-999.0,88,-99.99,,,0.00,Acu-Link.com,2013-09-26 09:06:00,
2013-09-26 05:21:00,52.3,48.5,29.91,NE,45,0.0,-999.0,87,-99.99,,,0.00,Acu-Link.com,2013-09-26 09:21:00,
2013-09-26 05:37:00,52.3,48.5,29.91,West,270,1.1,-999.0,87,-99.99,,,0.00,Acu-Link.com,2013-09-26 09:37:00,
2013-09-26 05:52:00,52.0,48.6,29.92,WNW,292,0.0,-999.0,88,-99.99,,,0.00,Acu-Link.com,2013-09-26 09:52:00,
2013-09-26 06:07:00,51.8,48.4,29.92,WSW,247,0.0,-999.0,88,-99.99,,,0.00,Acu-Link.com,2013-09-26 10:07:00,
2013-09-26 06:23:00,51.4,48.3,29.92,ESE,112,0.0,-999.0,89,-99.99,,,0.00,Acu-Link.com,2013-09-26 10:23:00,
2013-09-26 06:38:00,50.9,48.1,29.92,WNW,292,1.7,-999.0,90,-99.99,,,0.00,Acu-Link.com,2013-09-26 10:38:00,
2013-09-26 06:53:00,50.7,48.2,29.93,ESE,112,1.1,-999.0,91,-99.99,,,0.00,Acu-Link.com,2013-09-26 10:53:00,
2013-09-26 07:09:00,50.9,48.4,29.93,ESE,112,0.0,-999.0,91,-99.99,,,0.00,Acu-Link.com,2013-09-26 11:09:00,
2013-09-26 07:24:00,51.1,48.6,29.93,South,180,1.7,-999.0,91,-99.99,,,0.00,Acu-Link.com,2013-09-26 11:24:00,
2013-09-26 07:39:00,53.1,49.9,29.95,ENE,67,0.0,-999.0,89,-99.99,,,0.00,Acu-Link.com,2013-09-26 11:39:00,
2013-09-26 07:55:00,54.0,50.2,29.95,SE,135,0.0,-999.0,87,-99.99,,,0.00,Acu-Link.com,2013-09-26 11:55:00,
2013-09-26 08:10:00,55.2,50.1,29.96,East,90,1.7,-999.0,83,-99.99,,,0.00,Acu-Link.com,2013-09-26 12:10:00,
2013-09-26 08:25:00,56.3,50.5,29.95,East,90,1.1,-999.0,81,-99.99,,,0.00,Acu-Link.com,2013-09-26 12:25:00,
2013-09-26 08:40:00,57.4,50.6,29.96,NNW,337,2.7,-999.0,78,-99.99,,,0.00,Acu-Link.com,2013-09-26 12:40:00,
2013-09-26 08:56:00,58.6,51.1,29.96,West,270,1.1,-999.0,76,-99.99,,,0.00,Acu-Link.com,2013-09-26 12:56:00,
2013-09-26 09:11:00,59.7,50.7,29.97,East,90,2.7,-999.0,72,-99.99,,,0.00,Acu-Link.com,2013-09-26 13:11:00,
2013-09-26 09:26:00,58.6,49.6,29.97,SSE,157,3.2,-999.0,72,-99.99,,,0.00,Acu-Link.com,2013-09-26 13:26:00,
2013-09-26 09:41:00,58.6,48.8,29.97,NE,45,0.0,-999.0,70,-99.99,,,0.00,Acu-Link.com,2013-09-26 13:41:00,
2013-09-26 09:56:00,60.6,48.8,29.97,NE,45,2.7,-999.0,65,-99.99,,,0.00,Acu-Link.com,2013-09-26 13:56:00,
2013-09-26 10:11:00,60.4,49.8,29.97,ENE,67,4.2,-999.0,68,-99.99,,,0.00,Acu-Link.com,2013-09-26 14:11:00,
2013-09-26 10:26:00,60.3,48.1,29.98,West,270,2.7,-999.0,64,-99.99,,,0.00,Acu-Link.com,2013-09-26 14:26:00,
2013-09-26 10:41:00,59.5,48.9,29.98,East,90,3.7,-999.0,68,-99.99,,,0.00,Acu-Link.com,2013-09-26 14:41:00,
2013-09-26 10:57:00,60.1,49.1,29.98,ESE,112,3.2,-999.0,67,-99.99,,,0.00,Acu-Link.com,2013-09-26 14:57:00,
2013-09-26 11:12:00,60.6,49.6,29.97,NNE,22,2.2,-999.0,67,-99.99,,,0.00,Acu-Link.com,2013-09-26 15:12:00,
2013-09-26 11:27:00,61.3,49.0,29.98,East,90,2.7,-999.0,64,-99.99,,,0.00,Acu-Link.com,2013-09-26 15:27:00,
2013-09-26 11:42:00,61.5,48.8,29.98,ENE,67,2.2,-999.0,63,-99.99,,,0.00,Acu-Link.com,2013-09-26 15:42:00,
2013-09-26 11:57:00,60.3,49.7,29.98,SSE,157,3.2,-999.0,68,-99.99,,,0.00,Acu-Link.com,2013-09-26 15:57:00,
2013-09-26 12:12:00,61.2,50.2,29.98,SSE,157,2.2,-999.0,67,-99.99,,,0.00,Acu-Link.com,2013-09-26 16:12:00,
2013-09-26 12:27:00,61.3,50.2,29.98,NE,45,2.2,-999.0,67,-99.99,,,0.00,Acu-Link.com,2013-09-26 16:27:00,
2013-09-26 12:42:00,61.0,50.8,29.98,ESE,112,2.7,-999.0,69,-99.99,,,0.00,Acu-Link.com,2013-09-26 16:42:00,
2013-09-26 12:58:00,61.5,50.4,29.98,NNE,22,4.2,-999.0,67,-99.99,,,0.00,Acu-Link.com,2013-09-26 16:58:00,
2013-09-26 13:13:00,61.7,50.6,29.98,SE,135,1.1,-999.0,67,-99.99,,,0.00,Acu-Link.com,2013-09-26 17:13:00,
2013-09-26 13:28:00,63.7,52.5,29.97,South,180,2.2,-999.0,67,-99.99,,,0.00,Acu-Link.com,2013-09-26 17:28:00,
2013-09-26 13:43:00,62.1,50.6,29.97,ENE,67,2.7,-999.0,66,-99.99,,,0.00,Acu-Link.com,2013-09-26 17:43:00,
2013-09-26 13:58:00,63.1,50.3,29.96,ENE,67,4.2,-999.0,63,-99.99,,,0.00,Acu-Link.com,2013-09-26 17:58:00,
2013-09-26 14:13:00,63.7,50.4,29.96,ESE,112,2.7,-999.0,62,-99.99,,,0.00,Acu-Link.com,2013-09-26 18:13:00,
2013-09-26 14:28:00,63.0,49.8,29.96,SW,225,1.1,-999.0,62,-99.99,,,0.00,Acu-Link.com,2013-09-26 18:28:00,
2013-09-26 14:43:00,62.2,51.1,29.96,ENE,67,2.2,-999.0,67,-99.99,,,0.00,Acu-Link.com,2013-09-26 18:43:00,
2013-09-26 14:58:00,64.6,50.4,29.96,South,180,1.7,-999.0,60,-99.99,,,0.00,Acu-Link.com,2013-09-26 18:58:00,
2013-09-26 15:14:00,64.8,51.0,29.96,WNW,292,2.7,-999.0,61,-99.99,,,0.00,Acu-Link.com,2013-09-26 19:14:00,
2013-09-26 15:29:00,64.2,51.3,29.96,North,0,3.2,-999.0,63,-99.99,,,0.00,Acu-Link.com,2013-09-26 19:29:00,
2013-09-26 15:44:00,63.0,51.0,29.96,NNE,22,2.2,-999.0,65,-99.99,,,0.00,Acu-Link.com,2013-09-26 19:44:00,
2013-09-26 15:59:00,63.5,51.5,29.96,NNW,337,2.2,-999.0,65,-99.99,,,0.00,Acu-Link.com,2013-09-26 19:59:00,
2013-09-26 16:14:00,65.7,51.0,29.97,ESE,112,4.2,-999.0,59,-99.99,,,0.00,Acu-Link.com,2013-09-26 20:14:00,
2013-09-26 16:29:00,66.0,51.7,29.96,ENE,67,2.2,-999.0,60,-99.99,,,0.00,Acu-Link.com,2013-09-26 20:29:00,
2013-09-26 16:45:00,64.2,51.8,29.97,South,180,1.7,-999.0,64,-99.99,,,0.00,Acu-Link.com,2013-09-26 20:45:00,
2013-09-26 17:00:00,61.9,50.8,29.97,NNE,22,3.2,-999.0,67,-99.99,,,0.00,Acu-Link.com,2013-09-26 21:00:00,
2013-09-26 17:15:00,61.2,50.2,29.97,South,180,4.2,-999.0,67,-99.99,,,0.00,Acu-Link.com,2013-09-26 21:15:00,
2013-09-26 17:30:00,59.9,50.1,29.98,SE,135,4.7,-999.0,70,-99.99,,,0.00,Acu-Link.com,2013-09-26 21:30:00,
2013-09-26 17:45:00,58.8,49.8,29.98,NE,45,0.0,-999.0,72,-99.99,,,0.00,Acu-Link.com,2013-09-26 21:45:00,
2013-09-26 18:00:00,57.6,49.7,29.99,ENE,67,1.1,-999.0,75,-99.99,,,0.00,Acu-Link.com,2013-09-26 22:00:00,
2013-09-26 18:15:00,56.5,50.7,29.99,WSW,247,0.0,-999.0,81,-99.99,,,0.00,Acu-Link.com,2013-09-26 22:15:00,
2013-09-26 18:30:00,54.5,49.1,29.99,SW,225,0.0,-999.0,82,-99.99,,,0.00,Acu-Link.com,2013-09-26 22:30:00,
2013-09-26 18:45:00,52.7,48.0,30.00,SW,225,0.0,-999.0,84,-99.99,,,0.00,Acu-Link.com,2013-09-26 22:45:00,
2013-09-26 19:01:00,51.1,46.7,30.00,SW,225,0.0,-999.0,85,-99.99,,,0.00,Acu-Link.com,2013-09-26 23:01:00,
2013-09-26 19:16:00,50.0,46.0,30.01,SW,225,0.0,-999.0,86,-99.99,,,0.00,Acu-Link.com,2013-09-26 23:16:00,
2013-09-26 19:31:00,49.1,45.4,30.00,WSW,247,0.0,-999.0,87,-99.99,,,0.00,Acu-Link.com,2013-09-26 23:31:00,
2013-09-26 19:46:00,48.2,44.5,30.01,WSW,247,0.0,-999.0,87,-99.99,,,0.00,Acu-Link.com,2013-09-26 23:46:00,
2013-09-26 20:01:00,47.7,44.6,30.02,SW,225,0.0,-999.0,89,-99.99,,,0.00,Acu-Link.com,2013-09-27 00:01:00,
2013-09-26 20:16:00,46.9,44.1,30.02,WSW,247,0.0,-999.0,90,-99.99,,,0.00,Acu-Link.com,2013-09-27 00:16:00,
2013-09-26 20:31:00,46.2,43.1,30.02,SW,225,0.0,-999.0,89,-99.99,,,0.00,Acu-Link.com,2013-09-27 00:31:00,
2013-09-26 20:47:00,45.7,42.6,30.02,SW,225,0.0,-999.0,89,-99.99,,,0.00,Acu-Link.com,2013-09-27 00:47:00,
2013-09-26 21:02:00,46.0,43.2,30.03,WSW,247,0.0,-999.0,90,-99.99,,,0.00,Acu-Link.com,2013-09-27 01:02:00,
2013-09-26 21:17:00,47.5,45.3,30.03,WSW,247,0.0,-999.0,92,-99.99,,,0.00,Acu-Link.com,2013-09-27 01:17:00,
2013-09-26 21:32:00,48.4,46.5,30.03,West,270,0.0,-999.0,93,-99.99,,,0.00,Acu-Link.com,2013-09-27 01:32:00,
2013-09-26 21:47:00,49.1,47.2,30.03,SW,225,0.0,-999.0,93,-99.99,,,0.00,Acu-Link.com,2013-09-27 01:47:00,
2013-09-26 22:02:00,49.6,47.7,30.03,ESE,112,0.0,-999.0,93,-99.99,,,0.00,Acu-Link.com,2013-09-27 02:02:00,
2013-09-26 22:17:00,50.0,48.1,30.03,WSW,247,0.0,-999.0,93,-99.99,,,0.00,Acu-Link.com,2013-09-27 02:17:00,
2013-09-26 22:32:00,50.2,48.3,30.04,WSW,247,0.0,-999.0,93,-99.99,,,0.00,Acu-Link.com,2013-09-27 02:32:00,
2013-09-26 22:47:00,50.5,48.6,30.03,WSW,247,0.0,-999.0,93,-99.99,,,0.00,Acu-Link.com,2013-09-27 02:47:00,
2013-09-26 23:03:00,50.5,48.6,30.03,SW,225,0.0,-999.0,93,-99.99,,,0.00,Acu-Link.com,2013-09-27 03:03:00,
2013-09-26 23:18:00,50.5,48.6,30.03,SW,225,0.0,-999.0,93,-99.99,,,0.00,Acu-Link.com,2013-09-27 03:18:00,
2013-09-26 23:33:00,50.4,48.5,30.03,SW,225,0.0,-999.0,93,-99.99,,,0.00,Acu-Link.com,2013-09-27 03:33:00,
2013-09-26 23:48:00,50.7,48.8,30.03,SW,225,0.0,-999.0,93,-99.99,,,0.00,Acu-Link.com,2013-09-27 03:48:00,